Time,TemperatureF,DewpointF,PressureIn,WindDirection,WindDirectionDegrees,WindSpeedMPH,WindSpeedGustMPH,Humidity,HourlyPrecipIn,Conditions,Clouds,dailyrainin,SolarRadiationWatts/m^2,SoftwareType,DateUTC
2013-04-22 00:00:00,73.0,29.6,29.81,SW,225,12.0,22.0,20,0.00,,---,0.00,0.00,VWS V14.01,2013-04-22 07:00:00,
2013-04-22 00:02:00,72.1,28.0,29.81,SW,224,11.0,20.0,19,0.00,,,0.00,0,weatherlink.com 1.10,2013-04-22 07:02:00,
2013-04-22 00:15:00,71.9,28.7,29.81,SW,225,11.0,19.0,20,0.00,,---,0.00,0.00,VWS V14.01,2013-04-22 07:15:00,
2013-04-22 00:17:00,71.8,29.0,29.81,WSW,238,11.0,18.0,20,0.00,,,0.00,0,weatherlink.com 1.10,2013-04-22 07:17:00,
2013-04-22 00:30:00,71.4,29.5,29.81,SW,225,10.0,19.0,21,0.00,,---,0.00,0.00,VWS V14.01,2013-04-22 07:30:00,
2013-04-22 00:32:00,70.9,29.0,29.81,SW,220,10.0,19.0,21,0.00,,,0.00,0,weatherlink.com 1.10,2013-04-22 07:32:00,
2013-04-22 00:45:00,70.6,28.8,29.81,SW,225,10.0,18.0,21,0.00,,---,0.00,0.00,VWS V14.01,2013-04-22 07:45:00,
2013-04-22 00:47:00,70.4,30.0,29.81,WSW,237,11.0,17.0,22,0.00,,,0.00,0,weatherlink.com 1.10,2013-04-22 07:47:00,
2013-04-22 01:00:00,70.4,28.6,29.80,SW,225,9.0,17.0,21,0.00,,---,0.00,0.00,VWS V14.01,2013-04-22 08:00:00,
2013-04-22 01:02:00,70.6,29.0,29.80,SSW,202,12.0,15.0,21,0.00,,,0.00,0,weatherlink.com 1.10,2013-04-22 08:02:00,
2013-04-22 01:15:00,70.8,30.1,29.80,SW,225,8.0,15.0,22,0.00,,---,0.00,0.00,VWS V14.01,2013-04-22 08:15:00,
2013-04-22 01:17:00,70.9,30.0,29.80,SW,225,12.0,12.0,22,0.00,,,0.00,0,weatherlink.com 1.10,2013-04-22 08:17:00,
2013-04-22 01:30:00,70.8,29.0,29.80,SW,225,7.0,12.0,21,0.00,,---,0.00,0.00,VWS V14.01,2013-04-22 08:30:00,
2013-04-22 01:32:00,70.9,30.0,29.80,SW,229,12.0,12.0,22,0.00,,,0.00,0,weatherlink.com 1.10,2013-04-22 08:32:00,
2013-04-22 01:45:00,70.4,29.8,29.80,SW,225,9.0,17.0,22,0.00,,---,0.00,0.00,VWS V14.01,2013-04-22 08:45:00,
2013-04-22 01:47:00,70.1,29.0,29.80,SSW,206,13.0,17.0,22,0.00,,,0.00,0,weatherlink.com 1.10,2013-04-22 08:47:00,
2013-04-22 02:00:00,70.4,29.8,29.79,SW,225,8.0,17.0,22,0.00,,---,0.00,0.00,VWS V14.01,2013-04-22 09:00:00,
2013-04-22 02:02:00,70.6,30.0,29.80,SSW,212,7.0,17.0,22,0.00,,,0.00,0,weatherlink.com 1.10,2013-04-22 09:02:00,
2013-04-22 02:15:00,70.6,31.0,29.80,SW,225,7.0,12.0,23,0.00,,---,0.00,0.00,VWS V14.01,2013-04-22 09:15:00,
2013-04-22 02:17:00,70.1,31.0,29.80,SW,222,9.0,12.0,23,0.00,,,0.00,0,weatherlink.com 1.10,2013-04-22 09:17:00,
2013-04-22 02:30:00,69.7,30.3,29.79,SW,225,8.0,14.0,23,0.00,,---,0.00,0.00,VWS V14.01,2013-04-22 09:30:00,
2013-04-22 02:32:00,69.1,30.0,29.79,WSW,245,5.0,14.0,23,0.00,,,0.00,0,weatherlink.com 1.10,2013-04-22 09:32:00,
2013-04-22 02:45:00,68.6,31.4,29.79,SW,225,6.0,14.0,25,0.00,,---,0.00,0.00,VWS V14.01,2013-04-22 09:45:00,
2013-04-22 02:47:00,68.1,31.0,29.79,SW,234,9.0,15.0,25,0.00,,,0.00,0,weatherlink.com 1.10,2013-04-22 09:47:00,
2013-04-22 03:00:00,68.3,31.1,29.78,SW,225,8.0,15.0,25,0.00,,---,0.00,0.00,VWS V14.01,2013-04-22 10:00:00,
2013-04-22 03:02:00,68.6,31.0,29.78,SW,222,4.0,14.0,25,0.00,,,0.00,0,weatherlink.com 1.10,2013-04-22 10:02:00,
2013-04-22 03:15:00,68.5,32.3,29.78,SW,225,7.0,12.0,26,0.00,,---,0.00,0.00,VWS V14.01,2013-04-22 10:15:00,
2013-04-22 03:17:00,68.3,32.0,29.79,WSW,252,5.0,12.0,26,0.00,,,0.00,0,weatherlink.com 1.10,2013-04-22 10:17:00,
2013-04-22 03:30:00,67.9,30.8,29.79,WSW,248,5.0,10.0,25,0.00,,---,0.00,0.00,VWS V14.01,2013-04-22 10:30:00,
2013-04-22 03:32:00,67.6,30.0,29.79,West,261,3.0,8.0,25,0.00,,,0.00,0,weatherlink.com 1.10,2013-04-22 10:32:00,
2013-04-22 03:45:00,67.4,30.4,29.80,WSW,248,3.0,6.0,25,0.00,,---,0.00,0.00,VWS V14.01,2013-04-22 10:45:00,
2013-04-22 03:47:00,67.1,30.0,29.79,WSW,253,1.0,6.0,25,0.00,,,0.00,0,weatherlink.com 1.10,2013-04-22 10:47:00,
2013-04-22 04:00:00,66.9,30.0,29.80,WSW,248,1.0,3.0,25,0.00,,---,0.00,0.00,VWS V14.01,2013-04-22 11:00:00,
2013-04-22 04:02:00,66.3,29.0,29.80,WSW,253,1.0,4.0,25,0.00,,,0.00,0,weatherlink.com 1.10,2013-04-22 11:02:00,
2013-04-22 04:15:00,65.9,28.1,29.80,West,270,2.0,5.0,24,0.00,,---,0.00,0.00,VWS V14.01,2013-04-22 11:15:00,
2013-04-22 04:17:00,65.2,27.0,29.80,WNW,285,2.0,5.0,24,0.00,,,0.00,0,weatherlink.com 1.10,2013-04-22 11:17:00,
2013-04-22 04:30:00,64.7,27.1,29.80,WNW,292,1.0,4.0,24,0.00,,---,0.00,0.00,VWS V14.01,2013-04-22 11:30:00,
2013-04-22 04:32:00,64.2,28.0,29.80,WNW,285,0.0,2.0,25,0.00,,,0.00,0,weatherlink.com 1.10,2013-04-22 11:32:00,
2013-04-22 04:45:00,63.6,28.1,29.79,WNW,292,1.0,3.0,26,0.00,,---,0.00,0.00,VWS V14.01,2013-04-22 11:45:00,
2013-04-22 04:47:00,62.7,28.0,29.79,WNW,285,1.0,3.0,27,0.00,,,0.00,0,weatherlink.com 1.10,2013-04-22 11:47:00,
2013-04-22 05:00:00,62.3,28.8,29.79,WNW,292,1.0,3.0,28,0.00,,---,0.00,0.00,VWS V14.01,2013-04-22 12:00:00,
2013-04-22 05:02:00,61.8,27.0,29.79,West,270,0.0,2.0,27,0.00,,,0.00,0,weatherlink.com 1.10,2013-04-22 12:02:00,
2013-04-22 05:15:00,61.4,28.0,29.80,West,270,1.0,4.0,28,0.00,,---,0.00,0.00,VWS V14.01,2013-04-22 12:15:00,
2013-04-22 05:18:00,60.7,27.0,29.80,ESE,123,2.0,4.0,28,0.00,,,0.00,0,weatherlink.com 1.10,2013-04-22 12:18:00,
2013-04-22 05:30:00,60.4,28.0,29.80,ESE,112,0.0,3.0,29,0.00,,---,0.00,0.00,VWS V14.01,2013-04-22 12:30:00,
2013-04-22 05:33:00,59.8,28.0,29.80,ESE,123,0.0,0.0,30,0.00,,,0.00,0,weatherlink.com 1.10,2013-04-22 12:33:00,
2013-04-22 05:45:00,59.4,28.0,29.80,ESE,112,0.0,2.0,30,0.00,,---,0.00,0.00,VWS V14.01,2013-04-22 12:45:00,
2013-04-22 05:48:00,58.9,28.0,29.80,ESE,123,0.0,2.0,31,0.00,,,0.00,0,weatherlink.com 1.10,2013-04-22 12:48:00,
2013-04-22 06:00:00,58.6,28.1,29.80,ESE,112,0.0,1.0,31,0.00,,---,0.00,0.00,VWS V14.01,2013-04-22 13:00:00,
2013-04-22 06:03:00,58.4,28.0,29.80,ESE,123,0.0,0.0,31,0.00,,,0.00,0,weatherlink.com 1.10,2013-04-22 13:03:00,
2013-04-22 06:15:00,58.2,28.5,29.81,ESE,112,0.0,2.0,32,0.00,,---,0.00,5.00,VWS V14.01,2013-04-22 13:15:00,
2013-04-22 06:18:00,57.6,28.0,29.81,SE,124,4.0,4.0,32,0.00,,,0.00,18,weatherlink.com 1.10,2013-04-22 13:18:00,
2013-04-22 06:30:00,57.6,30.2,29.82,SE,135,2.0,4.0,35,0.00,,---,0.00,28.00,VWS V14.01,2013-04-22 13:30:00,
2013-04-22 06:33:00,57.8,30.0,29.82,SE,124,2.0,3.0,35,0.00,,,0.00,51,weatherlink.com 1.10,2013-04-22 13:33:00,
2013-04-22 06:45:00,58.2,30.7,29.83,SE,135,1.0,3.0,35,0.00,,---,0.00,66.00,VWS V14.01,2013-04-22 13:45:00,
2013-04-22 06:48:00,58.9,31.0,29.83,SE,124,3.0,4.0,35,0.00,,,0.00,98,weatherlink.com 1.10,2013-04-22 13:48:00,
2013-04-22 07:00:00,59.4,29.6,29.83,SE,135,1.0,4.0,32,0.00,,---,0.00,119.00,VWS V14.01,2013-04-22 14:00:00,
2013-04-22 07:03:00,60.4,30.0,29.83,SE,124,0.0,2.0,32,0.00,,,0.00,149,weatherlink.com 1.10,2013-04-22 14:03:00,
2013-04-22 07:15:00,60.9,30.9,29.83,SE,135,0.0,0.0,32,0.00,,---,0.00,164.00,VWS V14.01,2013-04-22 14:15:00,
2013-04-22 07:18:00,61.5,31.0,29.83,SE,124,0.0,0.0,32,0.00,,,0.00,197,weatherlink.com 1.10,2013-04-22 14:18:00,
2013-04-22 07:30:00,62.2,31.2,29.83,ESE,112,1.0,4.0,31,0.00,,---,0.00,217.00,VWS V14.01,2013-04-22 14:30:00,
2013-04-22 07:33:00,63.4,31.0,29.84,East,94,1.0,5.0,30,0.00,,,0.00,250,weatherlink.com 1.10,2013-04-22 14:33:00,
2013-04-22 07:45:00,63.8,30.1,29.84,East,90,2.0,5.0,28,0.00,,---,0.00,269.00,VWS V14.01,2013-04-22 14:45:00,
2013-04-22 07:48:00,64.7,30.0,29.84,NE,37,0.0,5.0,27,0.00,,,0.00,301,weatherlink.com 1.10,2013-04-22 14:48:00,
2013-04-22 08:00:00,65.2,30.4,29.85,NE,45,0.0,4.0,27,0.00,,---,0.00,319.00,VWS V14.01,2013-04-22 15:00:00,
2013-04-22 08:03:00,66.0,31.0,29.85,NE,34,2.0,4.0,27,0.00,,,0.00,352,weatherlink.com 1.10,2013-04-22 15:03:00,
2013-04-22 08:15:00,66.1,30.2,29.85,North,0,2.0,4.0,26,0.00,,---,0.00,371.00,VWS V14.01,2013-04-22 15:15:00,
2013-04-22 08:18:00,66.6,31.0,29.85,North,357,0.0,4.0,26,0.00,,,0.00,404,weatherlink.com 1.10,2013-04-22 15:18:00,
2013-04-22 08:30:00,67.0,30.0,29.85,North,0,2.0,4.0,25,0.00,,---,0.00,424.00,VWS V14.01,2013-04-22 15:30:00,
2013-04-22 08:33:00,67.8,31.0,29.85,North,357,0.0,4.0,25,0.00,,,0.00,461,weatherlink.com 1.10,2013-04-22 15:33:00,
2013-04-22 08:45:00,68.5,29.3,29.85,North,0,1.0,3.0,23,0.00,,---,0.00,476.00,VWS V14.01,2013-04-22 15:45:00,
2013-04-22 08:48:00,69.9,29.0,29.85,North,357,0.0,3.0,22,0.00,,,0.00,510,weatherlink.com 1.10,2013-04-22 15:48:00,
2013-04-22 09:00:00,70.7,28.9,29.85,North,0,0.0,3.0,21,0.00,,---,0.00,530.00,VWS V14.01,2013-04-22 16:00:00,
2013-04-22 09:03:00,72.3,30.0,29.85,North,357,0.0,2.0,21,0.00,,,0.00,563,weatherlink.com 1.10,2013-04-22 16:03:00,
2013-04-22 09:15:00,73.2,28.5,29.85,North,0,0.0,1.0,19,0.00,,---,0.00,580.00,VWS V14.01,2013-04-22 16:15:00,
2013-04-22 09:19:00,75.1,30.0,29.85,NNE,12,2.0,3.0,19,0.00,,,0.00,615,weatherlink.com 1.10,2013-04-22 16:19:00,
2013-04-22 09:30:00,75.6,27.8,29.85,North,0,1.0,5.0,17,0.00,,---,0.00,629.00,VWS V14.01,2013-04-22 16:30:00,
2013-04-22 09:34:00,76.3,28.0,29.84,NNW,338,0.0,4.0,17,0.00,,,0.00,659,weatherlink.com 1.10,2013-04-22 16:34:00,
2013-04-22 09:45:00,76.7,27.2,29.84,NNW,338,1.0,4.0,16,0.00,,---,0.00,673.00,VWS V14.01,2013-04-22 16:45:00,
2013-04-22 09:49:00,77.7,28.0,29.84,NW,326,2.0,4.0,16,0.00,,,0.00,703,weatherlink.com 1.10,2013-04-22 16:49:00,
2013-04-22 10:00:00,77.9,26.6,29.84,NW,315,1.0,4.0,15,0.00,,---,0.00,716.00,VWS V14.01,2013-04-22 17:00:00,
2013-04-22 10:04:00,78.8,27.0,29.84,NW,326,1.0,2.0,15,0.00,,,0.00,747,weatherlink.com 1.10,2013-04-22 17:04:00,
2013-04-22 10:15:00,79.4,27.8,29.84,NW,315,1.0,4.0,15,0.00,,---,0.00,758.00,VWS V14.01,2013-04-22 17:15:00,
2013-04-22 10:19:00,80.3,29.0,29.84,North,7,0.0,4.0,15,0.00,,,0.00,780,weatherlink.com 1.10,2013-04-22 17:19:00,
2013-04-22 10:30:00,80.6,27.0,29.84,ENE,68,1.0,5.0,14,0.00,,---,0.00,795.00,VWS V14.01,2013-04-22 17:30:00,
2013-04-22 10:34:00,81.4,28.0,29.84,ENE,72,0.0,5.0,14,0.00,,,0.00,817,weatherlink.com 1.10,2013-04-22 17:34:00,
2013-04-22 10:45:00,82.2,26.5,29.84,ENE,68,1.0,4.0,13,0.00,,---,0.00,829.00,VWS V14.01,2013-04-22 17:45:00,
2013-04-22 10:49:00,83.2,27.0,29.84,East,96,2.0,7.0,13,0.00,,,0.00,853,weatherlink.com 1.10,2013-04-22 17:49:00,
2013-04-22 11:00:00,83.8,27.8,29.84,East,90,1.0,7.0,13,0.00,,---,0.00,861.00,VWS V14.01,2013-04-22 18:00:00,
2013-04-22 11:04:00,84.0,28.0,29.84,NNW,336,2.0,7.0,13,0.00,,,0.00,879,weatherlink.com 1.10,2013-04-22 18:04:00,
2013-04-22 11:15:00,84.1,28.0,29.83,NNW,338,1.0,5.0,13,0.00,,---,0.00,886.00,VWS V14.01,2013-04-22 18:15:00,
2013-04-22 11:19:00,84.9,27.0,29.84,NNW,336,0.0,4.0,12,0.00,,,0.00,905,weatherlink.com 1.10,2013-04-22 18:19:00,
2013-04-22 11:30:00,85.1,26.8,29.82,SW,225,2.0,7.0,12,0.00,,---,0.00,912.00,VWS V14.01,2013-04-22 18:30:00,
2013-04-22 11:34:00,85.7,27.0,29.82,WSW,247,2.0,6.0,12,0.00,,,0.00,925,weatherlink.com 1.10,2013-04-22 18:34:00,
2013-04-22 11:45:00,85.6,27.2,29.82,East,90,2.0,7.0,12,0.00,,---,0.00,931.00,VWS V14.01,2013-04-22 18:45:00,
2013-04-22 11:49:00,85.3,29.0,29.82,ENE,78,1.0,7.0,13,0.00,,,0.00,946,weatherlink.com 1.10,2013-04-22 18:49:00,
2013-04-22 12:00:00,85.2,26.9,29.81,East,90,3.0,9.0,12,0.00,,---,0.00,950.00,VWS V14.01,2013-04-22 19:00:00,
2013-04-22 12:04:00,84.5,27.0,29.80,ESE,122,5.0,9.0,12,0.00,,,0.00,958,weatherlink.com 1.10,2013-04-22 19:04:00,
2013-04-22 12:15:00,84.9,26.7,29.80,ESE,112,3.0,9.0,12,0.00,,---,0.00,960.00,VWS V14.01,2013-04-22 19:15:00,
2013-04-22 12:19:00,86.5,28.0,29.80,WSW,241,0.0,10.0,12,0.00,,,0.00,969,weatherlink.com 1.10,2013-04-22 19:19:00,
2013-04-22 12:30:00,86.3,27.8,29.78,ESE,112,3.0,10.0,12,0.00,,---,0.00,969.00,VWS V14.01,2013-04-22 19:30:00,
2013-04-22 12:34:00,85.9,28.0,29.78,NE,53,4.0,10.0,12,0.00,,,0.00,974,weatherlink.com 1.10,2013-04-22 19:34:00,
2013-04-22 12:45:00,85.9,27.5,29.77,NE,45,3.0,10.0,12,0.00,,---,0.00,973.00,VWS V14.01,2013-04-22 19:45:00,
2013-04-22 12:49:00,85.7,27.0,29.77,North,2,3.0,8.0,12,0.00,,,0.00,972,weatherlink.com 1.10,2013-04-22 19:49:00,
2013-04-22 13:00:00,86.0,25.4,29.76,North,0,2.0,6.0,11,0.00,,---,0.00,973.00,VWS V14.01,2013-04-22 20:00:00,
2013-04-22 13:04:00,87.0,26.0,29.76,North,2,1.0,6.0,11,0.00,,,0.00,970,weatherlink.com 1.10,2013-04-22 20:04:00,
2013-04-22 13:15:00,86.8,26.0,29.76,NE,45,5.0,11.0,11,0.00,,---,0.00,970.00,VWS V14.01,2013-04-22 20:15:00,
2013-04-22 13:19:00,86.5,26.0,29.76,East,94,0.0,11.0,11,0.00,,,0.00,970,weatherlink.com 1.10,2013-04-22 20:19:00,
2013-04-22 13:30:00,87.0,23.9,29.75,NNE,22,3.0,9.0,10,0.00,,---,0.00,967.00,VWS V14.01,2013-04-22 20:30:00,
2013-04-22 13:34:00,88.0,25.0,29.75,SE,139,5.0,9.0,10,0.00,,,0.00,958,weatherlink.com 1.10,2013-04-22 20:34:00,
2013-04-22 13:45:00,88.7,22.7,29.75,SE,135,3.0,8.0,9,0.00,,---,0.00,954.00,VWS V14.01,2013-04-22 20:45:00,
2013-04-22 13:50:00,90.7,24.0,29.74,WSW,243,4.0,12.0,9,0.00,,,0.00,942,weatherlink.com 1.10,2013-04-22 20:50:00,
2013-04-22 14:00:00,90.8,24.3,29.74,SW,225,5.0,14.0,9,0.00,,---,0.00,938.00,VWS V14.01,2013-04-22 21:00:00,
2013-04-22 14:05:00,91.0,25.0,29.73,SSE,162,0.0,11.0,9,0.00,,,0.00,925,weatherlink.com 1.10,2013-04-22 21:05:00,
2013-04-22 14:15:00,91.2,24.6,29.73,SSE,158,2.0,7.0,9,0.00,,---,0.00,920.00,VWS V14.01,2013-04-22 21:15:00,
2013-04-22 14:20:00,92.1,25.0,29.72,WNW,286,6.0,10.0,9,0.00,,,0.00,904,weatherlink.com 1.10,2013-04-22 21:20:00,
2013-04-22 14:30:00,91.9,25.1,29.72,SE,135,4.0,17.0,9,0.00,,---,0.00,898.00,VWS V14.01,2013-04-22 21:30:00,
2013-04-22 14:35:00,91.0,25.0,29.71,East,99,9.0,10.0,9,0.00,,,0.00,872,weatherlink.com 1.10,2013-04-22 21:35:00,
2013-04-22 14:45:00,90.5,24.0,29.70,SE,135,4.0,10.0,9,0.00,,---,0.00,866.00,VWS V14.01,2013-04-22 21:45:00,
2013-04-22 14:50:00,90.3,24.0,29.70,South,178,5.0,13.0,9,0.00,,,0.00,844,weatherlink.com 1.10,2013-04-22 21:50:00,
2013-04-22 15:00:00,90.9,24.3,29.69,SSW,202,7.0,13.0,9,0.00,,---,0.00,836.00,VWS V14.01,2013-04-22 22:00:00,
2013-04-22 15:05:00,92.1,25.0,29.69,SSW,199,5.0,13.0,9,0.00,,,0.00,810,weatherlink.com 1.10,2013-04-22 22:05:00,
2013-04-22 15:15:00,92.3,25.4,29.68,SSW,202,7.0,18.0,9,0.00,,---,0.00,799.00,VWS V14.01,2013-04-22 22:15:00,
2013-04-22 15:20:00,92.3,26.0,29.68,South,178,10.0,18.0,9,0.00,,,0.00,773,weatherlink.com 1.10,2013-04-22 22:20:00,
2013-04-22 15:30:00,92.0,25.2,29.68,SSW,202,9.0,26.0,9,0.00,,---,0.00,763.00,VWS V14.01,2013-04-22 22:30:00,
2013-04-22 15:35:00,91.2,25.0,29.68,South,183,4.0,26.0,9,0.00,,,0.00,737,weatherlink.com 1.10,2013-04-22 22:35:00,
2013-04-22 15:45:00,91.5,24.8,29.67,SSE,158,6.0,17.0,9,0.00,,---,0.00,723.00,VWS V14.01,2013-04-22 22:45:00,
2013-04-22 15:50:00,91.8,25.0,29.66,South,174,3.0,16.0,9,0.00,,,0.00,689,weatherlink.com 1.10,2013-04-22 22:50:00,
2013-04-22 16:00:00,91.9,27.6,29.66,South,180,8.0,16.0,10,0.00,,---,0.00,677.00,VWS V14.01,2013-04-22 23:00:00,
2013-04-22 16:05:00,91.6,28.0,29.65,South,185,14.0,21.0,10,0.00,,,0.00,645,weatherlink.com 1.10,2013-04-22 23:05:00,
2013-04-22 16:15:00,91.7,27.5,29.64,South,180,9.0,21.0,10,0.00,,---,0.00,634.00,VWS V14.01,2013-04-22 23:15:00,
2013-04-22 16:20:00,91.4,25.0,29.64,WSW,256,8.0,20.0,9,0.00,,,0.00,610,weatherlink.com 1.10,2013-04-22 23:20:00,
2013-04-22 16:30:00,91.4,21.9,29.64,WSW,248,11.0,22.0,8,0.00,,---,0.00,599.00,VWS V14.01,2013-04-22 23:30:00,
2013-04-22 16:35:00,90.7,24.0,29.63,West,264,9.0,20.0,9,0.00,,,0.00,554,weatherlink.com 1.10,2013-04-22 23:35:00,
2013-04-22 16:45:00,90.6,26.6,29.63,WSW,248,12.0,21.0,10,0.00,,---,0.00,543.00,VWS V14.01,2013-04-22 23:45:00,
2013-04-22 16:50:00,90.1,27.0,29.63,SW,235,15.0,21.0,10,0.00,,,0.00,506,weatherlink.com 1.10,2013-04-22 23:50:00,
2013-04-22 17:00:00,89.9,28.4,29.63,WSW,248,11.0,24.0,11,0.00,,---,0.00,492.00,VWS V14.01,2013-04-23 00:00:00,
2013-04-22 17:05:00,89.5,26.0,29.63,SW,219,6.0,25.0,10,0.00,,,0.00,455,weatherlink.com 1.10,2013-04-23 00:05:00,
2013-04-22 17:15:00,89.6,32.3,29.63,West,270,11.0,20.0,13,0.00,,---,0.00,441.00,VWS V14.01,2013-04-23 00:15:00,
2013-04-22 17:20:00,89.0,26.0,29.62,WSW,255,11.0,20.0,10,0.00,,,0.00,404,weatherlink.com 1.10,2013-04-23 00:20:00,
2013-04-22 17:30:00,88.9,25.4,29.62,WSW,248,13.0,23.0,10,0.00,,---,0.00,392.00,VWS V14.01,2013-04-23 00:30:00,
2013-04-22 17:35:00,88.4,27.0,29.62,WSW,252,15.0,24.0,11,0.00,,,0.00,292,weatherlink.com 1.10,2013-04-23 00:35:00,
2013-04-22 17:45:00,88.3,27.2,29.62,WSW,248,12.0,23.0,11,0.00,,---,0.00,299.00,VWS V14.01,2013-04-23 00:45:00,
2013-04-22 17:50:00,88.2,27.0,29.62,SW,231,6.0,20.0,11,0.00,,,0.00,299,weatherlink.com 1.10,2013-04-23 00:50:00,
2013-04-22 18:00:00,88.0,24.7,29.62,WSW,248,11.0,21.0,10,0.00,,---,0.00,292.00,VWS V14.01,2013-04-23 01:00:00,
2013-04-22 18:05:00,87.6,25.0,29.61,WNW,293,15.0,19.0,10,0.00,,,0.00,250,weatherlink.com 1.10,2013-04-23 01:05:00,
2013-04-22 18:15:00,87.4,26.5,29.61,WSW,248,12.0,22.0,11,0.00,,---,0.00,239.00,VWS V14.01,2013-04-23 01:15:00,
2013-04-22 18:20:00,86.3,26.0,29.62,WSW,237,15.0,22.0,11,0.00,,,0.00,199,weatherlink.com 1.10,2013-04-23 01:20:00,
2013-04-22 18:30:00,86.2,25.6,29.61,WSW,248,12.0,22.0,11,0.00,,---,0.00,188.00,VWS V14.01,2013-04-23 01:30:00,
2013-04-22 18:35:00,85.3,25.0,29.61,WSW,238,11.0,22.0,11,0.00,,,0.00,153,weatherlink.com 1.10,2013-04-23 01:35:00,
2013-04-22 18:45:00,85.0,24.7,29.61,WSW,248,13.0,22.0,11,0.00,,---,0.00,143.00,VWS V14.01,2013-04-23 01:45:00,
2013-04-22 18:50:00,83.8,24.0,29.61,SW,233,15.0,26.0,11,0.00,,,0.00,104,weatherlink.com 1.10,2013-04-23 01:50:00,
2013-04-22 19:00:00,83.5,25.6,29.61,WSW,248,14.0,26.0,12,0.00,,---,0.00,89.00,VWS V14.01,2013-04-23 02:00:00,
2013-04-22 19:05:00,82.4,25.0,29.61,WSW,257,12.0,23.0,12,0.00,,,0.00,25,weatherlink.com 1.10,2013-04-23 02:05:00,
2013-04-22 19:15:00,82.1,24.5,29.61,WSW,248,13.0,23.0,12,0.00,,---,0.00,22.00,VWS V14.01,2013-04-23 02:15:00,
2013-04-22 19:20:00,81.4,24.0,29.61,WSW,255,13.0,21.0,12,0.00,,,0.00,12,weatherlink.com 1.10,2013-04-23 02:20:00,
2013-04-22 19:30:00,81.1,25.6,29.61,WSW,248,11.0,22.0,13,0.00,,---,0.00,10.00,VWS V14.01,2013-04-23 02:30:00,
2013-04-22 19:35:00,80.5,25.0,29.61,WSW,251,12.0,20.0,13,0.00,,,0.00,0,weatherlink.com 1.10,2013-04-23 02:35:00,
2013-04-22 19:45:00,80.3,25.0,29.61,WSW,248,10.0,20.0,13,0.00,,---,0.00,0.00,VWS V14.01,2013-04-23 02:45:00,
2013-04-22 19:50:00,79.8,25.0,29.62,SW,230,8.0,19.0,13,0.00,,,0.00,0,weatherlink.com 1.10,2013-04-23 02:50:00,
2013-04-22 20:00:00,79.6,26.3,29.62,WSW,248,9.0,15.0,14,0.00,,---,0.00,0.00,VWS V14.01,2013-04-23 03:00:00,
2013-04-22 20:05:00,78.8,26.0,29.62,SW,236,8.0,15.0,14,0.00,,,0.00,0,weatherlink.com 1.10,2013-04-23 03:05:00,
2013-04-22 20:10:00,78.6,25.5,29.62,WSW,250,11.0,11.0,14,0.00,,---,0.00,0.00,VWS V14.01,2013-04-23 03:10:00,
2013-04-22 20:15:00,78.7,27.2,29.63,WSW,248,10.0,18.0,15,0.00,,---,0.00,0.00,VWS V14.01,2013-04-23 03:15:00,
2013-04-22 20:30:00,78.1,28.3,29.64,WSW,248,9.0,19.0,16,0.00,,---,0.00,0.00,VWS V14.01,2013-04-23 03:30:00,
2013-04-22 20:45:00,77.7,28.0,29.64,WSW,248,9.0,20.0,16,0.00,,---,0.00,0.00,VWS V14.01,2013-04-23 03:45:00,
2013-04-22 21:00:00,77.3,27.7,29.64,WSW,248,10.0,20.0,16,0.00,,---,0.00,0.00,VWS V14.01,2013-04-23 04:00:00,
2013-04-22 21:15:00,76.6,28.6,29.64,WSW,248,9.0,18.0,17,0.00,,---,0.00,0.00,VWS V14.01,2013-04-23 04:15:00,
2013-04-22 21:30:00,76.0,29.5,29.65,WSW,248,8.0,15.0,18,0.00,,---,0.00,0.00,VWS V14.01,2013-04-23 04:30:00,
2013-04-22 21:43:00,75.3,30.0,29.65,WSW,251,10.0,15.0,19,0.00,,,0.00,0,weatherlink.com 1.10,2013-04-23 04:43:00,
2013-04-22 21:45:00,75.4,30.3,29.65,SW,225,9.0,18.0,19,0.00,,---,0.00,0.00,VWS V14.01,2013-04-23 04:45:00,
2013-04-22 21:50:00,75.3,30.0,29.65,WSW,245,10.0,14.0,19,0.00,,,0.00,0,weatherlink.com 1.10,2013-04-23 04:50:00,
2013-04-22 22:00:00,75.3,30.2,29.65,SW,225,7.0,14.0,19,0.00,,---,0.00,0.00,VWS V14.01,2013-04-23 05:00:00,
2013-04-22 22:05:00,74.9,30.0,29.65,WSW,243,13.0,13.0,19,0.00,,,0.00,0,weatherlink.com 1.10,2013-04-23 05:05:00,
2013-04-22 22:15:00,74.8,31.1,29.65,SW,225,8.0,13.0,20,0.00,,---,0.00,0.00,VWS V14.01,2013-04-23 05:15:00,
2013-04-22 22:20:00,74.6,31.0,29.65,WSW,248,7.0,15.0,20,0.00,,,0.00,0,weatherlink.com 1.10,2013-04-23 05:20:00,
2013-04-22 22:30:00,74.7,31.0,29.65,WSW,248,7.0,15.0,20,0.00,,---,0.00,0.00,VWS V14.01,2013-04-23 05:30:00,
2013-04-22 22:36:00,74.4,31.0,29.65,SW,216,7.0,9.0,20,0.00,,,0.00,0,weatherlink.com 1.10,2013-04-23 05:36:00,
2013-04-22 22:45:00,74.2,30.6,29.65,SW,225,6.0,12.0,20,0.00,,---,0.00,0.00,VWS V14.01,2013-04-23 05:45:00,
2013-04-22 22:50:00,74.0,30.0,29.65,SW,232,6.0,12.0,20,0.00,,,0.00,0,weatherlink.com 1.10,2013-04-23 05:50:00,
2013-04-22 23:00:00,74.0,30.4,29.65,SW,225,6.0,13.0,20,0.00,,---,0.00,0.00,VWS V14.01,2013-04-23 06:00:00,
2013-04-22 23:05:00,73.7,30.0,29.65,SW,236,10.0,13.0,20,0.00,,,0.00,0,weatherlink.com 1.10,2013-04-23 06:05:00,
2013-04-22 23:15:00,73.8,30.3,29.66,WSW,248,8.0,13.0,20,0.00,,---,0.00,0.00,VWS V14.01,2013-04-23 06:15:00,
2013-04-22 23:20:00,73.7,31.0,29.66,West,260,7.0,16.0,21,0.00,,,0.00,0,weatherlink.com 1.10,2013-04-23 06:20:00,
2013-04-22 23:30:00,73.8,30.3,29.66,WSW,248,8.0,16.0,20,0.00,,---,0.00,0.00,VWS V14.01,2013-04-23 06:30:00,
2013-04-22 23:35:00,73.5,31.0,29.66,SW,232,9.0,11.0,21,0.00,,,0.00,0,weatherlink.com 1.10,2013-04-23 06:35:00,
2013-04-22 23:45:00,73.3,31.0,29.67,WSW,248,7.0,14.0,21,0.00,,---,0.00,0.00,VWS V14.01,2013-04-23 06:45:00,
2013-04-22 23:50:00,73.0,31.0,29.66,WSW,242,7.0,11.0,21,0.00,,,0.00,0,weatherlink.com 1.10,2013-04-23 06:50:00,